Location: Carrer del Canonge
(41.4901°N, 2.2931°E)
Time: 04:39:07
(UTC+00:00)

USA 116 - Pass Details

Date: 18 September 2020
Orbit: 405 x 834 km, 97.9° (Epoch: 18 November)

Event Time Altitude Azimuth Distance (km) Brightness Sun altitude
Rises 18:19:11 0° 18° (NNE) 2,456 6.9 -5.5°
Reaches altitude 10° 18:21:10 10° 24° (NNE) 1,623 6.0 -5.8°
Maximum altitude 18:24:32 50° 101° (E) 642 3.7 -6.5°
Drops below altitude 10° 18:28:17 10° 178° (S) 1,801 6.2 -7.2°
Sets 18:30:35 0° 183° (S) 2,761 7.2 -7.6°
